Flag for Canada Weather past 2 weeks in Caledon, Ontario, Canada

Now
52 °F

Passing clouds.


Feels Like: 49 °F
Forecast: 42 / 51 °F
Wind: 7 mph from Northwest

Location: Borden

Current Time: Oct 25, 2014 at 10:00:38 PM

Latest Report: Oct 25, 2014 at 9:00 PM


Visibility: 9 mi

Pressure: 29.64 "Hg

Humidity: 62%

Dew point: 39 °F

Location of CaledonLocation

Historic Weather in Caledon — Graph

°F

Caledon temperature yesterday

Maximum temperature yesterday: 57 °F (at 3:00 PM)
Minimum temperature yesterday: 25 °F (at 6:00 AM)
Average temperature yesterday: 40 °F

Past Weeks' High & Low Weather Summary

 TemperatureHumidityPressure
High73 °F (Oct 14, 1:00 PM)100% (Oct 10, 10:00 PM)30.32 "Hg (Oct 10, 10:00 PM)
Low25 °F (Oct 24, 6:00 AM)44% (Oct 12, 2:00 PM)29.43 "Hg (Oct 17, 5:03 PM)
Average48 °F89%29.92 "Hg
* Reported Oct 10 9:00 PM — Oct 25 9:00 PM, Caledon, Weather by CustomWeather, © 2014

Note: Actual official high and low records may vary slightly from our data, if they occured in-between our weather recording intervals... More about our weather records

Advertising

Caledon weather history for previous 24 hours

 ConditionsComfort  
Time TempWeatherWind HumidityBarometerVisibility
9:00 PM
Oct 25
52 °FPassing clouds.7 mph62%29.64 "Hg9 mi
8:00 PM52 °FPassing clouds.10 mph67%29.64 "Hg9 mi
7:00 PM54 °FBroken clouds.8 mph63%29.62 "Hg9 mi
6:00 PM55 °FOvercast.12 mph63%29.60 "Hg9 mi
5:00 PM61 °FScattered clouds.9 mph52%29.59 "Hg9 mi
4:00 PM63 °FScattered clouds.15 mph49%29.58 "Hg9 mi
3:00 PM61 °FPartly sunny.16 mph59%29.58 "Hg9 mi
2:00 PM57 °FOvercast.12 mph77%29.61 "Hg9 mi
1:00 PM55 °FOvercast.9 mph82%29.63 "Hg9 mi
12:00 PM57 °FOvercast.17 mph77%29.64 "Hg9 mi
11:56 AM57 °FMostly cloudy.13 mph77%29.63 "Hg9 mi
11:00 AM59 °FOvercast.14 mph68%29.63 "Hg9 mi
10:00 AM57 °FSunny.14 mph72%29.66 "Hg9 mi
9:00 AM52 °FScattered clouds.8 mph88%29.70 "Hg8 mi
8:00 AM52 °FPassing clouds.6 mph94%29.76 "Hg7 mi
7:02 AM45 °FClear.9 mph100%29.76 "Hg3 mi
6:00 AM43 °FClear.5 mph100%29.79 "Hg4 mi
5:00 AM43 °FClear.2 mph100%29.81 "Hg5 mi
4:00 AM46 °FPassing clouds.2 mph93%29.83 "Hg9 mi
3:00 AM50 °FOvercast.No wind88%29.86 "Hg9 mi
2:00 AM50 °FOvercast.3 mph88%29.87 "Hg9 mi
1:00 AM50 °FOvercast.3 mph88%29.89 "Hg9 mi
12:00 AM48 °FOvercast.No wind94%29.91 "Hg9 mi
11:00 PM
Oct 24
48 °FOvercast.3 mph87%29.92 "Hg9 mi
10:00 PM46 °FOvercast.2 mph93%29.94 "Hg9 mi
Weather by CustomWeather, © 2014

See weather overviewHow to use our weather pages